Location: Newark
(43.0000°N, 1.6781°W)
Time: 18:38:00
(UTC+00:00)

Transit 2A Rocket - Pass Details

Date: 27 April 2021
Orbit: 594 x 908 km, 66.7° (Epoch: 05 May)

Event Time Altitude Azimuth Distance (km) Brightness Sun altitude
Rises 22:58:54 0° 321° (NW) 2,921 9.0 -30.9°
Reaches altitude 10° 23:01:13 10° 313° (NW) 2,045 7.9 -31.1°
Enters shadow 23:03:32 26° 293° (WNW) 1,301 6.5 -31.2°
